User: anonymous   Login
Location: Unspecified
(0.0000°N, 0.0000°E)
Time: 21:40:52
(UTC+00:00)
Language:

Tiros 1 - Orbit

View from above orbital plane
View from above orbital plane
View from above satellite
View from above satellite

Ground track
Ground track

The orbit data is extracted from the following two-line orbital elements,

1 00029U 60002B   17265.66717072 -.00000086  00000-0  18188-4 0  9991
2 00029  48.3809 341.6558 0024712 279.4218  80.3900 14.74191406 71281
Epoch (UTC): 22 September 2017 16:00:43
Eccentricity: 0.0024712
inclination: 48.3809°
perigee height: 630 km
apogee height: 665 km
right ascension of ascending node: 341.6558°
argument of perigee: 279.4218°
revolutions per day: 14.74191406
mean anomaly at epoch: 80.3900°
orbit number at epoch: 7128

The dashed part of the orbit path shows where the satellite is in the earth's shadow,  

DLR